OpenBCM V1.08-5-g2f4a (Linux)

Packet Radio Mailbox

IZ3LSV

[San Dona' di P. JN]

 Login: GUEST





  
I0OJJ  > KEPS     01.04.25 02:25l 328 Lines 15596 Bytes #12 (0) @ AMSAT
BID : ORB25091.1
Read: GUEST
Subj: 2Line Orbital Elements 25091.AMSAT
Path: IZ3LSV<I0OJJ
Sent: 250401/0025z @:I0OJJ.ITA.EU [Rome] obcm1.08-6-g5b69
From: I0OJJ @ I0OJJ.ITA.EU (Gustavo)
To:   KEPS @ AMSAT
X-Info: This message was generated automatically


QST de W1STR

AMSAT Orbital Elements for Amateur Satellites in TLE Format
From Orbital Analysis Office
New England Sci-Tech STEM Education Center
Natick, MA April 01, 2025
To all radio amateurs


These element sets describe the orbits of various satellites 
in use by the amateur radio community. For details see:
www.amsat.org/keplerian-elements-formats/

A daily update of element sets is available at:
www.amsat.org/tle/daily-bulletin.txt
or without bulletin text:
www.amsat.org/tle/dailytle.txt


AO-07
1 07530U 74089B   25090.59395531 -.00000052  00000-0 -33861-4 0  9993
2 07530 101.9955  94.1088 0011882 255.3202 216.0577 12.53687803305050
UO-11
1 14781U 84021B   25090.52283655  .00003487  00000-0  37577-3 0  9992
2 14781  97.7479  58.3221 0007142 196.0605 164.0387 14.89055747212215
AO-27
1 22825U 93061C   25090.42613370  .00000282  00000-0  12486-3 0  9996
2 22825  98.7444 151.6088 0007626 324.7099  35.3578 14.30764398643684
FO-29
1 24278U 96046B   25090.73552793  .00000005  00000-0  39509-4 0  9990
2 24278  98.5829 353.8014 0350230 163.3814 197.9156 13.53242003413570
NOAA-15
1 25338U 98030A   25090.83253837  .00000330  00000-0  15325-3 0  9991
2 25338  98.5429 117.6205 0009977 197.1455 162.9390 14.26928600398453
GO-32
1 25397U 98043D   25090.51293355  .00000248  00000-0  12756-3 0  9997
2 25397  98.9651  68.1920 0002254  67.5907 292.5509 14.24286130388315
ISS
1 25544U 98067A   25090.87768942  .00016274  00000-0  28892-3 0  9999
2 25544  51.6354 329.9157 0003521  68.3163 291.8201 15.50352746503177
NO-44
1 26931U 01043C   25090.85840067  .00000373  00000-0  17064-3 0  9997
2 26931  67.0511 308.1019 0005570 268.7187  91.3277 14.31679688227284
SO-50
1 27607U 02058C   25090.21507101  .00003732  00000-0  48591-3 0  9995
2 27607  64.5546  57.6897 0048134 350.9887   9.0349 14.81292743198808
CO-55
1 27844U 03031E   25090.55397710  .00000786  00000-0  36205-3 0  9995
2 27844  98.6791  99.7255 0010321  37.2129 322.9763 14.23911746128679
CO-57
1 27848U 03031J   25090.54021512  .00000668  00000-0  31425-3 0  9990
2 27848  98.6820  99.7700 0010485  52.7179 307.4953 14.23258391128409
RS-22
1 27939U 03042A   25090.81244808  .00002501  00000-0  40598-3 0  9997
2 27939  98.3214 258.6112 0010811 226.9061 244.0748 14.72066451150563
NOAA-18
1 28654U 05018A   25090.83161984  .00000343  00000-0  20557-3 0  9997
2 28654  98.8442 171.0887 0013431 330.8893  29.1529 14.13561620 23899
CO-58
1 28895U 05043F   25090.38116325  .00003960  00000-0  65843-3 0  9996
2 28895  98.2378 233.9136 0015220 166.1710 193.9916 14.70609484 36628
CO-65
1 32785U 08021C   25090.48083199  .00009424  00000-0  69778-3 0  9993
2 32785  97.7777  61.2027 0012067  88.6618 271.5989 15.03307023918612
AAUSAT2
1 32788U 08021F   25090.48107081  .00213000  00000-0  23234-2 0  9996
2 32788  97.6043  84.9394 0006377 135.7470 224.4298 15.62659608922356
CO-66
1 32791U 08021J   25090.48640833  .00023153  00000-0  11978-2 0  9997
2 32791  97.7248  69.0976 0006495  67.0870 293.1047 15.16229829919943
RS-30
1 32953U 08025A   25090.78746559  .00000031  00000-0  14966-3 0  9997
2 32953  82.4975 270.5907 0019326 195.6072 164.4414 12.43161242764861
NOAA-19
1 33591U 09005A   25090.82666942  .00000333  00000-0  20149-3 0  9992
2 33591  99.0039 155.1223 0013639 196.7181 163.3542 14.13327470832253
SRMSAT
1 37841U 11058D   25090.46501479  .00000624  00000-0  19546-3 0  9990
2 37841  19.9708 218.8368 0011853  14.1564  49.2871 14.11400159695191
ZACUBE-1
1 39417U 13066B   25090.83538543  .00010636  00000-0  94292-3 0  9990
2 39417  97.7743  48.2923 0042606 286.0719  73.5813 14.95695786614482
Delfi-N3xt
1 39428U 13066N   25090.48073253  .00010190  00000-0  10693-2 0  9992
2 39428  97.8366   8.9818 0085259 230.5660 128.7989 14.87021316608654
GOMX-1
1 39430U 13066Q   25090.86905796  .00003549  00000-0  55732-3 0  9997
2 39430  97.6928 313.7904 0134601  55.8853 305.5038 14.67242835605184
LO-74
1 39440U 13066AA  25090.81710938  .00009061  00000-0  93098-3 0  9997
2 39440  97.8446  35.9233 0064832  51.3468 309.3526 14.89015340612254
AO-73
1 39444U 13066AE  25090.84964802  .00013675  00000-0  10612-2 0  9991
2 39444  97.7658  52.6195 0039355 261.8547  97.8212 15.00862991613712
DTUSAT-2
1 40030U 14033W   25090.67047269  .00014360  00000-0  96612-3 0  9996
2 40030  98.0493  59.2025 0007589 304.2172  55.8334 15.06830053586371
EO-80
1 40032U 14033Y   25090.42857987  .00012015  00000-0  80771-3 0  9991
2 40032  98.0394  58.7015 0006670 226.6348 133.4323 15.06910012585800
LILACSAT-2
1 40908U 15049K   25090.86242910  .00018545  00000-0  51727-3 0  9996
2 40908  97.5124 109.6017 0011270  59.3740 300.8614 15.36742398527514
IO-86
1 40931U 15052B   25038.81889873  .00001817  00000-0  15548-3 0  9993
2 40931   6.0001 108.1159 0012838 187.7041 172.2889 14.78568669506492
Horyu-4
1 41340U 16012D   25090.45196038  .00033689  00000-0  10242-2 0  9994
2 41340  30.9978 242.2764 0008784  52.3890 307.7551 15.32799559502001
Lapan A3
1 41603U 16040E   25090.82762820  .00005945  00000-0  21222-3 0  9991
2 41603  97.1395  98.1958 0012197 149.5968 210.5983 15.29151768487127
CAS-2T
1 41847U 16066G   25090.66707690  .00002026  00000-0  29609-3 0  9999
2 41847  98.4238 165.7315 0347471  30.1649 331.9057 14.43259513440932
CAS-4B
1 42759U 17034B   25090.81504957  .00064328  00000-0  97568-3 0  9998
2 42759  43.0108  14.8419 0017432 169.3417 190.7817 15.53575511431717
CAS-4A
1 42761U 17034D   25090.82804992  .00066464  00000-0  98154-3 0  9999
2 42761  43.0145  12.5022 0018854 174.2140 185.8942 15.54263263431738
TechnoSat
1 42829U 17042E   25090.46777544  .00006461  00000-0  50888-3 0  9998
2 42829  97.3914 262.5369 0013871 152.8881 207.3071 15.01037215420209
AO-91
1 43017U 17073E   25090.60585551  .00014265  00000-0  74781-3 0  9992
2 43017  97.5340 323.1745 0178307  45.0337 316.5188 15.03096987398693
S-Net D
1 43186U 18014G   25090.45322845  .00008488  00000-0  51410-3 0  9997
2 43186  97.5690 354.1002 0011314 103.0070 257.2423 15.10789895391782
S-Net B
1 43187U 18014H   25090.72269202  .00009249  00000-0  55982-3 0  9999
2 43187  97.5694 354.3348 0012069  98.4691 261.7907 15.10778402391820
S-Net A
1 43188U 18014J   25090.45385437  .00008392  00000-0  50817-3 0  9999
2 43188  97.5700 354.2102 0011972  99.8449 260.4133 15.10794302391783
S-Net C
1 43189U 18014K   25090.46001362  .00008679  00000-0  52551-3 0  9998
2 43189  97.5721 354.2184 0013518  93.8525 266.4251 15.10768368390334
Ten-Koh
1 43677U 18084G   25090.43649720  .00004911  00000-0  39902-3 0  9990
2 43677  98.0962 259.8966 0010457 145.1738 215.0170 15.00054490349723
PO-101
1 43678U 18084H   25090.79219408  .00004259  00000-0  36742-3 0  9990
2 43678  98.0987 264.2886 0008560 155.1805 204.9829 14.97828783349930
QO-100
1 43700U 18090A   25090.16988970  .00000140  00000-0  00000-0 0  9991
2 43700   0.0188 118.7942 0001463 283.1174 233.8391  1.00272956 23236
MinXSS-2
1 43758U 18099A   25090.42349908  .00021219  00000-0  90827-3 0  9993
2 43758  97.5085 156.3454 0012659  49.3898 310.8437 15.22753657346287
AO-95
1 43770U 18099N   25090.44154403  .00014691  00000-0  77834-3 0  9992
2 43770  97.5000 149.3540 0012557  98.4694 261.7962 15.15433950345922
RANGE-A
1 43773U 18099R   25090.09784548  .00007789  00000-0  50723-3 0  9993
2 43773  97.4564 140.5508 0012835  77.5711 282.6953 15.08138082345598
MOVE-II
1 43780U 18099Y   25090.43748261  .00114053  00000-0  18830-2 0  9996
2 43780  97.4725 162.0739 0000716  70.8561 289.2768 15.51853298346841
SNUSat 2
1 43782U 18099AA  25090.67992220  .00012571  00000-0  71165-3 0  9993
2 43782  97.4682 146.8945 0013002  43.0229 317.2017 15.13101097345927
SnugLite
1 43784U 18099AC  25090.42030292  .00014271  00000-0  75097-3 0  9997
2 43784  97.4496 146.0735 0004369  60.5332 299.6336 15.15738747346003
ITASat 1
1 43786U 18099AE  25090.41406612  .00010060  00000-0  59310-3 0  9993
2 43786  97.4650 146.3395 0016381  90.6470 269.6637 15.11653865345852
EAGLET 1
1 43790U 18099AJ  25090.11393736  .00007118  00000-0  46324-3 0  9998
2 43790  97.4838 146.2158 0013478  74.7523 285.5195 15.08186551345447
ESEO
1 43792U 18099AL  25090.67202204  .00003389  00000-0  26097-3 0  9991
2 43792  97.4584 140.9325 0012604  48.4105 311.8198 15.02239117345322
CSIM
1 43793U 18099AM  25090.15565217  .00110856  00000-0  18007-2 0  9990
2 43793  97.4918 163.8960 0003289 357.3503   2.7731 15.52317342346643
JO-97
1 43803U 18099AX  25090.13914135  .00016407  00000-0  79458-3 0  9992
2 43803  97.4742 149.9178 0008029  42.5863 317.5993 15.18603856346079
Suomi 100
1 43804U 18099AY  25090.57535232  .00016715  00000-0  85730-3 0  9990
2 43804  97.4802 149.8268 0013121  38.1038 322.1120 15.16543534346089
ISAT
1 43879U 18111D   25090.50423011  .00030903  00000-0  11907-2 0  9990
2 43879  97.5999   3.5104 0012301  86.1250 274.1394 15.26216116342991
UWE-4
1 43880U 18111E   25090.25070246  .00022340  00000-0  94872-3 0  9991
2 43880  97.5938   2.1838 0015274  96.1217 264.1760 15.22978433342912
Sparrow
1 43881U 18111F   25090.53821289  .00031074  00000-0  11612-2 0  9998
2 43881  97.6133   6.1684 0010040 115.6400 244.5877 15.27254192343085
Prox-1
1 44339U 19036A   25090.52256324  .00019909  00000-0  26631-2 0  9995
2 44339  23.9966 161.3651 0006888   0.6634 359.3871 14.77927705307636
SONATE
1 44400U 19038Q   25090.84988721  .00120622  00000-0  10555-2 0  9997
2 44400  97.7033 109.7773 0010689 139.0472 221.1594 15.68454985318569
Taurus 1
1 44530U 19059C   25090.86898976  .00013267  00000-0  25134-2 0  9993
2 44530  98.5977 227.0518 0010118 243.5559 116.4604 14.64390701293733
